Location: Bassano
(45.7667°N, 11.7333°E)
Time: 18:23:13
(UTC+00:00)

CZ-2D R/B - Pass Details

Date: 07 June 2020
Orbit: 791 x 846 km, 98.7° (Epoch: 04 July)

Event Time Altitude Azimuth Distance (km) Brightness Sun altitude
Rises 00:24:57 0° 19° (NNE) 3,307 7.0 -19.5°
Reaches altitude 10° 00:27:23 10° 26° (NNE) 2,369 5.8 -19.3°
Maximum altitude 00:32:24 45° 99° (E) 1,065 2.8 -19.1°
Enters shadow 00:35:02 25° 158° (SSE) 1,545 3.2 -18.9°
